Valparaiso, FL

4:08 PM CDT on April 23, 2017 (GMT -0500)
Eglin Air Force Base

Weather History for KVPS - October, 2011

Change the Weather History Date:

Friday, October 28, 2011

  Actual Average Record
Temperature  
Mean Temperature 66 °F -  
Max Temperature 80 °F 76 °F 86 °F (2000)
Min Temperature 53 °F 49 °F 30 °F (1957)
Cooling Degree Days 1    
Growing Degree Days 16 (Base 50)    
Moisture  
Dew Point 57 °F    
Average Humidity 74    
Maximum Humidity 93    
Minimum Humidity 44    
Precipitation  
Precipitation 0.00 in - - ()
Sea Level Pressure  
Sea Level Pressure 29.94 in    
Wind  
Wind Speed 4 mph (NW)    
Max Wind Speed 20 mph    
Max Gust Speed 22 mph    
Visibility 10 miles    
Events      
Averages and records for this station are not official NWS values.
T = Trace of Precipitation, MM = Missing Value Source: NWS Daily Summary

Daily Weather History Graph

Daily Weather History Graph

Search for Another Location

Airport or City:

Trip Planner

Search our weather history database for the weather conditions in past years. The results will help you decide how hot, cold, wet, or windy it might be!

Date:

Astronomy

Oct. 28, 2011 Rise Set
Actual Time 6:57 AM CDT 6:02 PM CDT
Civil Twilight 6:32 AM CDT 6:26 PM CDT
Nautical Twilight 6:04 AM CDT 6:54 PM CDT
Astronomical Twilight 5:36 AM CDT 7:22 PM CDT
Moon 9:00 AM CDT (10/28) 7:36 PM CDT (10/28)
Length of Visible Light 11h 53m
Length of Day
11h 04m
Waxing Crescent, 5% of the Moon is Illuminated
Oct 28
Waxing Crescent
Nov 2
First Quarter
Nov 10
Full
Nov 18
Last Quarter
Nov 25
New

Hourly Weather History & Observations

Time (CDT) Temp. Dew Point Humidity Pressure Visibility Wind Dir Wind Speed Gust Speed Precip Events Conditions
12:55 AM 60.6 °F 56.5 °F 86% 29.93 in 10.0 mi Calm Calm - N/A   Mostly Cloudy
1:55 AM 57.7 °F 55.4 °F 92% 29.92 in 10.0 mi Calm Calm - N/A   Clear
2:55 AM 56.8 °F 54.7 °F 92% 29.92 in 10.0 mi NNW 3.5 mph - N/A   Clear
3:55 AM 56.7 °F 54.7 °F 93% 29.92 in 10.0 mi NNW 2.3 mph - N/A   Clear
4:55 AM 55.2 °F 53.2 °F 93% 29.93 in 10.0 mi North 3.5 mph - N/A   Partly Cloudy
5:55 AM 53.1 °F 51.1 °F 93% 29.94 in 10.0 mi NW 2.3 mph - N/A   Partly Cloudy
6:55 AM 53.8 °F 51.6 °F 92% 29.95 in 6.0 mi NNE 2.3 mph - N/A   Partly Cloudy
7:55 AM 58.6 °F 56.1 °F 91% 29.97 in 7.0 mi North 1.2 mph - N/A   Scattered Clouds
8:55 AM 64.6 °F 59.2 °F 83% 29.98 in 10.0 mi North 3.5 mph - N/A   Partly Cloudy
9:55 AM 69.6 °F 59.0 °F 69% 29.99 in 10.0 mi North 3.5 mph - N/A   Scattered Clouds
10:55 AM 73.9 °F 59.4 °F 60% 29.98 in 10.0 mi North 4.6 mph - N/A   Partly Cloudy
11:55 AM 78.6 °F 55.2 °F 44% 29.95 in 10.0 mi WNW 5.8 mph - N/A   Scattered Clouds
12:55 PM 79.9 °F 56.7 °F 45% 29.93 in 10.0 mi South 10.4 mph - N/A   Partly Cloudy
1:55 PM 78.6 °F 60.3 °F 53% 29.89 in 10.0 mi SSW 10.4 mph - N/A   Partly Cloudy
2:55 PM 77.9 °F 59.5 °F 53% 29.89 in 10.0 mi South 9.2 mph - N/A   Partly Cloudy
3:55 PM 76.6 °F 59.4 °F 55% 29.89 in 10.0 mi South 10.4 mph - N/A   Scattered Clouds
4:55 PM 74.5 °F 60.3 °F 61% 29.89 in 10.0 mi SSW 8.1 mph - N/A   Mostly Cloudy
5:56 PM 73.4 °F 60.1 °F 63% 29.90 in 10.0 mi SSW 4.6 mph - N/A   Scattered Clouds
6:56 PM 71.8 °F 60.1 °F 67% 29.91 in 10.0 mi West 3.5 mph - N/A   Mostly Cloudy
7:55 PM 71.2 °F 59.9 °F 67% 29.93 in 10.0 mi WNW 3.5 mph - N/A   Scattered Clouds
8:56 PM 68.4 °F 60.1 °F 75% 29.93 in 10.0 mi NW 9.2 mph - N/A   Partly Cloudy
9:47 PM 64.4 °F 57.2 °F 77% 29.95 in 10.0 mi NNW 9.2 mph 19.6 mph N/A   Partly Cloudy
9:56 PM 64.8 °F 57.6 °F 77% 29.96 in 10.0 mi NNW 16.1 mph 21.9 mph N/A   Partly Cloudy
10:56 PM 60.4 °F 53.6 °F 78% 29.97 in 10.0 mi North 11.5 mph - N/A   Partly Cloudy
11:18 PM 59.0 °F 53.6 °F 82% 29.97 in 10.0 mi North 12.7 mph - N/A   Mostly Cloudy
11:55 PM 58.5 °F 51.6 °F 78% 29.98 in 10.0 mi North 19.6 mph - N/A   Mostly Cloudy